Location: Acheville
(50.3840°N, 2.8827°E)
Time: 11:10:06
(UTC+00:00)

NOSS 3-2 (C) - Pass Details

Date: 24 October 2021
Orbit: 770 x 1442 km, 63.4° (Epoch: 03 November)

Event Time Altitude Azimuth Distance (km) Brightness Sun altitude
Rises 19:34:37 0° 310° (NW) 3,761 7.6 -28.5°
Reaches altitude 10° 19:37:16 10° 318° (NW) 2,905 6.7 -28.9°
Maximum altitude 19:43:52 42° 28° (NNE) 1,657 4.5 -29.9°
Enters shadow 19:44:20 41° 37° (NE) 1,678 4.5 -30.0°
